Regional Weather Roundup
Issued by NWS Wakefield, VA

Home | Current Version | Previous Version | Graphics & Text | Print | Product List | Glossary On
Versions: 1 2 3 4 5 6 7 8 9 10 11 12 13 14 15 16 17 18 19 20 21 22 23 24 25 26 27 28 29 30 31 32 33 34 35 36 37 38 39 40 41 42 43 44 45 46 47 48 49 50
000
ASUS41 KAKQ 060914
RWRAKQ

REGIONAL WEATHER ROUNDUP
NATIONAL WEATHER SERVICE WAKEFIELD VA
500 AM EDT WED MAY 06 2015

Note: "fair" indicates few or no clouds below 12,000 feet with no
significant weather and/or obstructions to visibility. * = Denotes
station may not report precipitation (e.g., rain,snow,etc.),
thunder or fog.

VAZ042-051-052>054-056-061000-
NORTHERN VIRGINIA

CITY           SKY/WX    TMP DP  RH WIND       PRES   REMARKS
WASH NATIONAL  MOCLDY    65  61  87 S5        30.20F
DULLES         CLEAR     61  59  93 NW3       30.20S
FORT BELVOIR   CLEAR     59  58  97 S1        30.20S FOG
QUANTICO       CLEAR     63  60  90 CALM      30.20F
FREDERICKSBRG* CLEAR     63  63 100 SE3       30.20S FOG
STAFFORD*      FOG       57  32  38 CALM      30.24F VSB 1/4
WARRENTON      FOG       57  57 100 CALM      30.19F VSB<1/4
CULPEPER*      FOG       55  55 100 CALM      30.21R VSB 1/2
MANASSAS*      CLOUDY    57  57 100 CALM      30.20S VSB 3/4
LEESBURG*      CLEAR     59  59 100 MISG      30.21F FOG
WINCHESTER     CLEAR     59  54  82 CALM      30.21S HAZE
FRONT ROYAL*   FAIR      59  57  94 S3        30.19F
LURAY*         FOG       55  55 100 CALM      30.22S VSB 3/4
$$

VAZ048-049-060>072-079>083-061000-
CENTRAL AND SOUTH CENTRAL VIRGINIA

CITY           SKY/WX    TMP DP  RH WIND       PRES   REMARKS
RICHMOND       PTCLDY    61  53  75 S3        30.22S
CHESTERFIELD*  PTSUNNY   63  45  51 SW3       30.24S
PETERSBURG*    PTCLDY    56  53  86 CALM      30.23F
HANOVER        CLEAR     60  58  92 S5        30.23S
TAPPAHANNOCK*  CLOUDY    62  55  79 CALM      30.23R
QUINTON*       PTSUNNY   62  53  72 CALM      30.22F
CHARLOTTSVILLE PTCLDY    60  60 100 S5        30.20F FOG
GORDONSVILLE*  FAIR      55  55  99 CALM      30.19F FOG
ORANGE*        CLEAR     57  55  94 CALM      30.21F FOG
LOUISA*        CLEAR     61  61 100 CALM      30.20S
BUMPASS*       FAIR      60  59  98 CALM      30.21S
FARMVILLE*     PTCLDY    62  60  94 S5        30.21S
CREWE*         CLOUDY    62  52  70 SW5       30.22F
FORT PICKETT*  FAIR      60  52  76 SW6       30.23S
CHASE CITY*    FAIR      59  56  91 CALM      30.23F
CLARKSVILLE*   FAIR      55  52  88 CALM      30.23F
SOUTH HILL*    CLEAR     54  51  89 CALM      30.29F
LAWRENCEVILLE* FAIR      56  52  85 CALM      30.23F
EMPORIA*       CLEAR     50  50 100 CALM      30.25S
$$

VAZ088>098-061000-
SOUTHEAST VIRGINIA

CITY           SKY/WX    TMP DP  RH WIND       PRES   REMARKS
NORFOLK        PTCLDY    59  52  77 S7        30.24S
VIRGINIA BEACH MOCLDY    61  53  75 SW6       30.24S
NORFOLK NAVAL  PTCLDY    66  53  63 SW6       30.25S
WEST POINT*    MOCLDY    67  51  56 S3        30.24F
SALUDA*        CLOUDY    64  52  67 SW3       30.22F
NEWPORT NEWS   CLEAR     64  52  64 SW6       30.24S
LANGLEY AFB    CLEAR     60  53  75 SW5       30.23S
FORT EUSTIS    NOT AVBL
WILLIAMSBURG*  CLEAR     64  55  72 W3        30.24S
HR EXEC AP*    FAIR      52  48  87 CALM      30.25F
FRANKLIN*      PTCLDY    55  52  90 CALM      30.25S
WAKEFIELD      PTCLDY    57  52  83 CALM      30.23F
$$

VAZ020-022-025-037-045-061000-
WEST CENTRAL AND SOUTHWEST VIRGINIA

CITY           SKY/WX    TMP DP  RH WIND       PRES   REMARKS
STAUNTON*      FAIR      54  52  94 CALM      30.25S FOG
WAYNESBORO*    FAIR      59  57  94 CALM      30.23F
HOT SPRINGS VA CLOUDY    60  49  68 W7        30.31S
LYNCHBURG      CLEAR     59  55  87 CALM      30.24S
DANVILLE       CLEAR     56  52  86 CALM      30.24F
SOUTH BOSTON*  FAIR      55  54  95 CALM      30.23F
MARTINSVILLE   CLEAR     54  54 100 CALM      30.25F FOG
ROANOKE        PTCLDY    59  55  87 CALM      30.25S
BLACKSBURG     CLOUDY    54  52  92 CALM      30.29F
DUBLIN*        CLOUDY    57  56  95 CALM      30.28S
MARION*        MOCLDY    55  52  88 CALM      30.30F
HILLSVILLE*    PTCLDY    60  53  77 S3        30.29S
RICHLANDS*     FAIR      62  52  70 CALM      30.29S
WISE*          CLEAR     61  48  63 CALM      30.29F
ABINGDON*      CLEAR     59  55  87 CALM      30.27S
$$

MDZ021>025-VAZ099-100-061000-
SOUTHERN MARYLAND AND THE DELMARVA PENINSULA

CITY           SKY/WX    TMP DP  RH WIND       PRES   REMARKS
PATUXENT RIVER CLEAR     63  58  83 W7        30.20S
BAY BRIDGE APT   N/A    N/A N/A N/A CALM      30.21S
LEONARDTOWN    PTCLDY    63  59  88 SW3       30.22S
DOVER          CLEAR     62  62 100 S6        30.18R
GEORGETOWN     PTCLDY    59  57  93 S3        30.22S
EASTON         CLEAR     61  61 100 CALM      30.24F
CAMBRIDGE      CLEAR     59  55  88 SE3       30.21S
SALISBURY      CLEAR     62  56  80 S3        30.22R
OCEAN CITY     PTCLDY    63  53  70 SW6       30.22S
WALLOPS ISLAND PTCLDY    61  52  72 SW5       30.22S
ACCOMACK*      PTCLDY    61  54  77 SW6       30.23S
$$

NCZ012>017-030>032-061000-
NORTH CENTRAL AND EASTERN NORTH CAROLINA

CITY           SKY/WX    TMP DP  RH WIND       PRES   REMARKS
ROANOKE RAPIDS FAIR      52  50  93 CALM      30.24S
RALEIGH        PTCLDY    56  52  86 CALM      30.25F
ELIZABETH CITY CLEAR     58  56  93 CALM      30.25S
AHOSKIE*       CLEAR     52  50  94 CALM      30.25S
EDENTON*       CLEAR     56  54  93 CALM      30.25S
CURRITUCK*     CLEAR     59  56  90 CALM      30.25S
KILL DEVIL HLS CLEAR     63  60  89 CALM      30.24R
MANTEO         CLEAR     61  60  97 S5        30.25S
CAPE HATTERAS  MOCLDY    54  52  93 E3        30.25F
TARBORO*       FAIR      53  51  95 CALM      30.25S
GOLDSBORO      PTCLDY    55  52  91 CALM      30.22F
WASHINGTON       N/A     53  51  94 CALM      30.24F
GREENVILLE     PTCLDY    54  54 100 CALM      30.25S
NEW BERN       MOCLDY    52  50  93 CALM      30.25F
WILMINGTON     MOCLDY    56  54  93 CALM      30.22F
$$

VAZ048-061000-
ELSEWHERE

CITY           SKY/WX    TMP DP  RH WIND       PRES   REMARKS
HARRISBURG PA  MOCLDY    63  60  90 CALM      30.20S FOG
BALTIMORE      PTCLDY    61  58  90 E3        30.19S
ANNAPOLIS      CLEAR     63  60  90 SE6       30.20R
ANDREWS AFB    PTCLDY    61  61  99 S5        30.19F
PHILADELPHIA   CLOUDY    66  62  87 W3        30.20S
HENDERSON NC   CLEAR     56  50  82 SW6       30.24F
GREENSBORO     PTCLDY    59  54  83 CALM      30.23F
ROCKY MOUNT    FAIR      53  51  93 CALM      30.24F
$$

VAZ100-061000-
MARINE

STATION/POSITION TIME  TEMP    WIND        PRES    WAVE   SWELL
                       AIR SEA DIR/SP/G            HT/PER HT/PER
                 (UTC) (F)     (DEG/KT/KT) (MB)    (FT/S) (FT/S)
BRANDYWINE LGT   0800          250/ 10/ 11   N/A
CAPE MAY NJ      0800   61 61  220/  4/  5 1022.8R
LEWES DE         0800   64 56  230/  5/  6 1023.0R
15NM E FENWICK I 0850   56 54              1023.1S   3/ 5
OCEAN-CITY-INLET 0800   60 53  240/  3/  4 1023.0R
WACHAPREAGUE VA  0800   63 69  240/  5/  6 1023.6S
THOMAS POINT MD  0900   64 61  150/  7/  7 1023.2F
GOOSES REEF MD   0900   63 60                N/A     1/ 2
COVE POINT MD    0800   65     240/  6/  9 1023.3F
SOLOMONS ISLAND  0800      62                N/A
BISHOPS HEAD MD  0800   67 67  230/  8/ 10 1022.6S
PINEY POINT MD   0800          240/  4/  6   N/A
CAMBRIDGE MD     0800   64 64   CALM  /  2 1022.7S
LEWISETTA VA     0800   67 66              1022.7R
RAPPAHANNOCK LGT 0800          200/  9/ 11 1024.2R
YORK RVR RNG VA  0800   65     240/  7/  8 1023.3F
YORKTOWN VA      0800   64 60  230/  4/  7 1023.5S
JAMESTOWN VA     0900   63 68  260/  2/  4 1022.9F
DOMINION TERM VA 0800   64     230/  8/  9 1024.0F
KIPTOPEKE VA     0800      66  250/  4/  6   N/A
CHES BAY BRIDGE  0800   64 62  220/  8/ 10 1023.6S
CAPE HENRY VA    0800   63     220/  7/ 10 1022.6F
CHESAPEAKE LGHT  0800   63     230/ 12/ 12 1024.5R
WILLOUBY STN VA  0800   63     240/  8/  9 1024.6S
S CRANEY ISL VA  0800          210/  5/  6 1024.0R
CAPE HENRY BUOY  0828      61                N/A     2/11
1ST LANDING BUOY 0900      62                N/A     1/ 3
CAPE CHARLES BUO 0826      59                N/A     2/11   2/11
OFFSHORE WE BUOY 0811      60                N/A     2/11   2/11
64NM E OF VA BCH 0850   58 56  250/  4/  6 1024.1R   2/11   2/11
DUCK PIER NC     0800   65 51  180/  8/  9 1023.0F
44056 DUCK FRF   0811      53                N/A     1/11
OREGON INLET NC  0800   64 71  140/  5/  6 1024.3F
HATTERAS NC      0800   67 67  120/  2/  3 1024.1F
DIAMOND SHLS NC  0850   70 75  150/  6/  8 1024.4F   3/11   2/11
CAPE LOOKOUT NC  0900   68      50/  5/  5 1023.6F
$$



USA.gov is the U.S. government's official web portal to all federal, state and local government web resources and services.